Regional Weather Roundup
Issued by NWS Raleigh/Durham, NC

Home | Current Version | Previous Version | Text Only | Print | Product List | Glossary On
Versions: 1 2 3 4 5 6 7 8 9 10 11 12 13 14 15 16 17 18 19 20 21 22 23 24 25 26 27 28 29 30 31 32 33 34 35 36 37 38 39 40 41 42 43 44 45 46 47 48 49 50
000
ASUS42 KRAH 012210
RWRRAH
NORTH CAROLINA WEATHER ROUNDUP
NATIONAL WEATHER SERVICE RALEIGH NC
600 PM EDT FRI JUL 01 2016

NOTE: "FAIR" INDICATES FEW OR NO CLOUDS BELOW 12,000 FEET WITH NO
SIGNIFICANT WEATHER AND/OR OBSTRUCTIONS TO VISIBILITY.

NCZ001-053-055-056-065-067-012300-
WESTERN NORTH CAROLINA

CITY           SKY/WX    TMP DP  RH WIND       PRES   REMARKS
ASHEVILLE      PTSUNNY   86  57  37 NW6       30.03R
JEFFERSON      CLOUDY    78  56  45 W10       30.09S
MORGANTON      CLOUDY    91  59  34 SE6       30.00F
HICKORY        CLOUDY    89  61  38 VRB3      29.96S
RUTHERFORDTON  SUNNY     86  69  56 SE12      29.97S
MOUNT AIRY     CLOUDY    76  70  83 E3        29.99S
BOONE          SUNNY     79  52  38 NW9G16    30.10S
$$

NCZ021-022-025-041-071-084-088-012300-
CENTRAL NORTH CAROLINA

CITY           SKY/WX    TMP DP  RH WIND       PRES   REMARKS
CHARLOTTE      CLOUDY    84  68  58 SW5       29.96S
GREENSBORO     PTSUNNY   87  63  44 W8        29.94S
WINSTON-SALEM  CLOUDY    87  64  46 W6        29.96S
RALEIGH-DURHAM MOSUNNY   88  71  57 SW7       29.93S
FORT BRAGG     MOSUNNY   89  71  54 W13       29.93R HX  95
FAYETTEVILLE   MOSUNNY   91  69  48 SW10      29.93R HX  96
BURLINGTON     SUNNY     89  65  44 S7        29.93S
LAURINBURG     MOSUNNY   88  71  57 SW8       29.95R
$$

NCZ011-015-027-028-043-044-047-080-103-012300-
NORTHEASTERN NORTH CAROLINA

CITY           SKY/WX    TMP DP  RH WIND       PRES   REMARKS
ROCKY MT-WILSO MOSUNNY   87  73  62 S8        29.92S
GREENVILLE     MOSUNNY   86  77  74 S10       29.94S HX  97
WASHINGTON     CLOUDY    82  74  77 S10       29.94R
ELIZABETH CITY MOSUNNY   83  73  72 S15       29.93S
MANTEO         CLOUDY    81  74  79 SW21      29.96R
CAPE HATTERAS  CLOUDY    80  73  79 SW15G23   29.97F
$$

NCZ078-087-090-091-093-098-101-012300-
SOUTHEASTERN NORTH CAROLINA

CITY           SKY/WX    TMP DP  RH WIND       PRES   REMARKS
LUMBERTON      MOSUNNY   89  71  55 SW10      29.94R HX  95
GOLDSBORO      SUNNY     91  72  52 S10       29.92R HX  98
KINSTON        PTSUNNY   84  73  70 S15G21    29.94S
KENANSVILLE    HVY RAIN  78  74  89 CALM      29.95S
NEW BERN       CLOUDY    81  72  74 S10       29.97S
CHERRY POINT   CLOUDY    80  71  74 S12G22    29.98S
BEAUFORT       PTSUNNY   80  74  81 S15       29.97F
JACKSONVILLE   CLOUDY    82  73  74 S12G18    29.96F
WILMINGTON     CLOUDY    80  72  76 S12       29.98S
$$




USA.gov is the U.S. government's official web portal to all federal, state and local government web resources and services.